Weather History for Key West NAF, FL

Change the Weather History Date:

Friday, November 2, 2012

  Actual Average Record
Temperature  
Mean Temperature 74 °F -  
Max Temperature 78 °F 82 °F 88 °F (1992)
Min Temperature 71 °F 74 °F 65 °F (1957)
Cooling Degree Days 10    
Growing Degree Days 24 (Base 50)    
Moisture  
Dew Point 65 °F    
Average Humidity 72    
Maximum Humidity 81    
Minimum Humidity 60    
Precipitation  
Precipitation 0.21 in - - ()
Sea Level Pressure  
Sea Level Pressure 30.06 in    
Wind  
Wind Speed 4 mph (NW)    
Max Wind Speed 8 mph    
Max Gust Speed -    
Visibility 10 miles    
Events Rain    
Averages and records for this station are not official NWS values.
T = Trace of Precipitation, MM = Missing Value Source: NWS Daily Summary

Daily Weather History Graph

Daily Weather History Graph

Search for Another Location

Airport:

Trip Planner

Search our weather history database for the weather conditions in past years. The results will help you decide how hot, cold, wet, or windy it might be!

Date:

Astronomy

Nov. 02, 2012 Rise Set
Actual Time 7:34 AM EDT 6:45 PM EDT
Civil Twilight 7:11 AM EDT 7:09 PM EDT
Nautical Twilight 6:43 AM EDT 7:36 PM EDT
Astronomical Twilight 6:17 AM EDT 8:03 PM EDT
Moon 9:43 PM EDT 10:41 AM EDT
Length of Visible Light 11h 58m
Length of Day
11h 11m
Waning Gibbous, 87% of the Moon is Illuminated
Nov 2
Waning Gibbous
Nov 6
Last Quarter
Nov 13
New
Nov 20
First Quarter
Nov 28
Full

Hourly Weather History & Observations

Time (EDT) Temp. Dew Point Humidity Pressure Visibility Wind Dir Wind Speed Gust Speed Precip Events Conditions
12:53 AM - - N/A% 30.06 in 10.0 mi SW 4.6 mph - N/A   Partly Cloudy
1:53 AM - - N/A% 30.06 in 10.0 mi Calm Calm - N/A   Overcast
2:53 AM - - N/A% 30.05 in 10.0 mi Calm Calm - N/A   Mostly Cloudy
3:53 AM - - N/A% 30.04 in 10.0 mi WSW 3.5 mph - N/A   Clear
4:53 AM - - N/A% 30.04 in 10.0 mi SW 3.5 mph - N/A   Partly Cloudy
5:53 AM - - N/A% 30.05 in 10.0 mi Calm Calm - N/A   Clear
6:05 AM 71.6 °F 62.6 °F 73% 30.05 in 10.0 mi Calm Calm - N/A   Partly Cloudy
6:53 AM 71.6 °F 63.0 °F 74% 30.05 in 10.0 mi Calm Calm - N/A   Partly Cloudy
7:53 AM 71.6 °F 63.0 °F 74% 30.06 in 10.0 mi Calm Calm - N/A   Partly Cloudy
8:53 AM 73.4 °F 66.9 °F 80% 30.07 in 10.0 mi West 3.5 mph - N/A   Partly Cloudy
9:53 AM 77.0 °F 64.0 °F 64% 30.08 in 10.0 mi West 6.9 mph - N/A   Partly Cloudy
10:53 AM 77.0 °F 64.0 °F 64% 30.09 in 10.0 mi West 6.9 mph - N/A   Partly Cloudy
11:53 AM 78.8 °F 64.0 °F 60% 30.09 in 10.0 mi WNW 5.8 mph - N/A   Scattered Clouds
12:53 PM 78.8 °F 64.0 °F 60% 30.07 in 10.0 mi West 8.1 mph - N/A   Scattered Clouds
1:53 PM 77.0 °F 66.0 °F 69% 30.05 in 10.0 mi NW 8.1 mph - 0.00 in   Mostly Cloudy
2:38 PM 75.2 °F 66.2 °F 73% 30.04 in 10.0 mi NNW 8.1 mph - 0.00 in Rain Light Rain
2:53 PM 75.2 °F 66.0 °F 73% 30.04 in 7.0 mi NNW 6.9 mph - 0.01 in Rain Light Rain
3:11 PM - - N/A% 30.05 in 5.0 mi NNW 5.8 mph - 0.01 in Rain Light Rain
3:36 PM - - N/A% 30.04 in 10.0 mi East 4.6 mph - 0.20 in   Mostly Cloudy
3:53 PM 75.2 °F 66.9 °F 75% 30.04 in 10.0 mi Variable 5.8 mph - 0.20 in   Mostly Cloudy
4:53 PM 76.1 °F 68.0 °F 76% 30.03 in 10.0 mi North 5.8 mph - N/A   Scattered Clouds
5:53 PM 76.1 °F 66.9 °F 73% 30.05 in 10.0 mi North 4.6 mph - N/A   Scattered Clouds
6:53 PM 73.8 °F 66.9 °F 79% 30.04 in 10.0 mi NNE 5.8 mph - N/A   Scattered Clouds
7:53 PM 73.2 °F 66.9 °F 81% 30.04 in 10.0 mi North 5.8 mph - N/A   Scattered Clouds
8:53 PM 72.9 °F 66.0 °F 79% 30.06 in 10.0 mi North 4.6 mph - N/A   Scattered Clouds
9:53 PM 73.2 °F 64.0 °F 73% 30.08 in 10.0 mi North 4.6 mph - N/A   Partly Cloudy
10:53 PM - - N/A% 30.09 in 10.0 mi North 5.8 mph - N/A   Clear
11:53 PM - - N/A% 30.10 in 10.0 mi North 5.8 mph - N/A   Clear